Location: ???????
(55.4362°N, 38.1183°E)
Time: 11:28:39
(UTC+00:00)

USA 267 - Pass Details

Date: 28 October 2021
Orbit: 1101 x 1107 km, 123.0° (Epoch: 25 November)

Event Time Altitude Azimuth Distance (km) Brightness Sun altitude
Rises 14:59:16 0° 126° (SE) 3,912 5.7 -9.3°
Reaches altitude 10° 15:01:47 10° 130° (SE) 2,956 5.1 -9.6°
Maximum altitude 15:08:14 62° 210° (SSW) 1,226 3.7 -10.5°
Drops below altitude 10° 15:14:44 10° 292° (WNW) 2,965 6.6 -11.4°
Sets 15:17:16 0° 295° (WNW) 3,925 7.2 -11.8°
